Regional Weather Roundup
Issued by NWS

Home | Current Version | Previous Version | Graphics & Text | Print | Product List | Glossary On
Versions: 1 2 3 4 5 6 7 8 9 10 11 12 13 14 15 16 17 18 19 20 21 22 23 24 25 26 27 28 29 30 31 32 33 34 35 36 37 38 39 40 41 42 43 44 45 46 47 48 49 50
000
ASUS45 KCYS 250110
RWRWY

WYOMING REGIONAL WEATHER ROUNDUP
NATIONAL WEATHER SERVICE CHEYENNE WY
700 PM MDT FRI APR 24 2015

NOTE:  "FAIR" INDICATES FEW OR NO CLOUDS BELOW 12,000 FEET
WITH NO SIGNIFICANT WEATHER AND/OR OBSTRUCTIONS TO VISIBILITY.

WYZ001-250200-
YELLOWSTONE NATIONAL PARK

CITY           SKY/WX    TMP DP  RH WIND       PRES   REMARKS
LK YELLOWSTONE   N/A     33  32  96 CALM      29.76R
W YELLOWSTONE  NOT AVBL

$$
WYZ002>013-054>058-071-098>099-250200-
NORTHERN WYOMING

CITY           SKY/WX    TMP DP  RH WIND       PRES   REMARKS
JACKSON        PTSUNNY  N/A N/A N/A SE5       29.73R
CODY           FAIR      59  34  38 S8        29.56S
GREYBULL       FAIR      69  20  15 SE3       29.50S
WORLAND        FAIR      66  30  26 NE3       29.51S
SHERIDAN       FAIR      58  38  47 E6        29.59R
BUFFALO        LGT RAIN  57  38  48 N8        29.63R
GILLETTE       FAIR      58  40  51 E10       29.60R
HULETT         FAIR      61  32  33 E8        29.62R
NEWCASTLE      FAIR      54  41  62 MISG      29.60S

$$
WYZ014>020-022>026-101>103-250200-
CENTRAL WYOMING

CITY           SKY/WX    TMP DP  RH WIND       PRES   REMARKS
BIG PINEY      CLOUDY    48  31  51 E8        29.72S
PINEDALE       FAIR      41  36  81 E6        29.72F
DUBOIS         FAIR      41  32  70 N13       29.71S
LANDER         CLOUDY    55  30  38 SW15G22   29.61R
RIVERTON       FAIR      59  29  31 SW30G37   29.60R
CASPER         FAIR      57  32  38 SW23      29.60R
DOUGLAS        CLOUDY    57  40  52 E22       29.60R

$$
WYZ021-027>030-104>119-250200-
SOUTHERN WYOMING

CITY           SKY/WX    TMP DP  RH WIND       PRES   REMARKS
EVANSTON       CLOUDY    41  35  79 SW14      29.78R
KEMMERER       CLOUDY    41  37  87 SW21G26   29.75R
FORT BRIDGER   PTCLDY    45  36  70 W25G35    29.78R
ROCK SPRINGS   PTSUNNY   47  35  63 W12       29.74R
DIXON          LGT RAIN  46  37  70 SW7       29.81R
RAWLINS        FAIR      49  33  54 W21G29    29.73R
SARATOGA       CLOUDY    45  34  65 SW17G26   29.77R
LARAMIE        FAIR      45  33  63 SW15      29.71S
CHEYENNE       FAIR      54  30  40 NW6       29.66S
TORRINGTON     CLOUDY    56  43  61 W5        29.59S
PINE BLUFFS    FAIR      54  37  54 SW5       29.65R

$$



USA.gov is the U.S. government's official web portal to all federal, state and local government web resources and services.